Location: Unspecified
(51.6411°N, 0.0000°E)
Time: 06:24:21
(UTC+00:00)

Injun/Solrad 3 - Visible Passes

Search period start: 04 April 2026 00:00
Search period end: 14 April 2026 00:00
Orbit: 870 x 986 km, 66.8° (Epoch: 29 March)

Date Brightness Start Highest point End Pass type
(mag) Time Alt. Az. Time Alt. Az. Time Alt. Az.
4 Apr 7.7 01:42:00 87° E 01:42:00 87° E 01:48:07 10° NE visible
4 Apr 9.1 03:25:37 18° W 03:29:11 31° NNW 03:34:40 10° NNE visible
5 Apr 9.4 00:08:56 24° E 00:08:56 24° E 00:12:06 10° NE visible
5 Apr 7.8 01:52:33 67° W 01:53:01 70° NW 01:59:11 10° NE visible
5 Apr 9.4 03:36:09 12° WNW 03:40:37 26° NNW 03:45:47 10° NNE visible
6 Apr 9.0 00:19:27 34° E 00:19:27 34° E 00:23:27 10° NE visible
6 Apr 8.3 02:03:03 47° WNW 02:04:10 53° NW 02:10:14 10° NE visible
6 Apr 9.6 03:47:18 10° WNW 03:52:05 23° NNW 03:56:59 10° NE visible
7 Apr 8.4 00:29:55 48° ENE 00:29:55 48° ENE 00:34:39 10° NE visible
7 Apr 8.7 02:13:32 33° WNW 02:15:25 41° NW 02:21:17 10° NNE visible
7 Apr 9.8 03:59:03 10° WNW 04:03:37 21° N 04:08:17 10° NE visible
7 Apr 10.0 22:56:46 13° ENE 22:56:46 13° ENE 22:57:56 10° ENE visible
8 Apr 8.0 00:40:22 68° ENE 00:40:22 68° ENE 00:45:48 10° NE visible
8 Apr 9.1 02:23:58 23° WNW 02:26:45 33° NNW 02:32:21 10° NNE visible
8 Apr 10.0 04:10:44 10° NW 04:15:10 20° N 04:19:42 10° NE visible
8 Apr 9.6 23:07:10 20° ENE 23:07:10 20° ENE 23:09:39 10° NE visible
9 Apr 7.9 00:50:47 76° NW 00:50:47 76° NW 00:56:52 10° NE visible
9 Apr 9.4 02:34:22 16° WNW 02:38:09 28° NNW 02:43:26 10° NNE visible
9 Apr 10.0 04:22:19 10° NW 04:26:44 20° N 04:31:15 10° NE visible
9 Apr 9.1 23:17:33 29° ENE 23:17:33 29° ENE 23:21:03 10° NE visible
10 Apr 8.2 01:01:08 55° WNW 01:01:48 58° NW 01:07:55 10° NE visible
10 Apr 9.7 02:44:44 10° WNW 02:49:36 24° NNW 02:54:36 10° NE visible
10 Apr 10.1 04:33:47 10° NW 04:38:19 20° N 04:42:56 10° NE visible
10 Apr 8.6 23:27:52 42° ENE 23:27:52 42° ENE 23:32:18 10° NE visible
11 Apr 8.7 01:11:27 37° WNW 01:13:01 45° NW 01:18:58 10° NNE visible
11 Apr 9.9 02:56:28 10° WNW 03:01:07 22° NNW 03:05:53 10° NE visible
11 Apr 9.9 21:54:32 12° ENE 21:54:32 12° ENE 21:55:16 10° ENE visible
11 Apr 8.0 23:38:08 63° ENE 23:38:08 63° ENE 23:43:27 10° NE visible
12 Apr 9.1 01:21:43 25° WNW 01:24:19 36° NNW 01:30:01 10° NNE visible
12 Apr 10.0 03:08:11 10° NW 03:12:40 20° N 03:17:15 10° NE visible
12 Apr 9.5 22:04:44 19° ENE 22:04:44 19° ENE 22:07:09 10° ENE visible
12 Apr 7.8 23:48:19 84° NW 23:48:19 84° NW 23:54:33 10° NE visible
13 Apr 9.4 01:31:54 16° WNW 01:35:42 30° NNW 01:41:06 10° NNE visible
13 Apr 10.2 03:19:48 10° NW 03:24:14 20° N 03:28:46 10° NE visible
13 Apr 9.0 22:14:51 28° E 22:14:51 28° E 22:18:38 10° NE visible
